sat.trackr.live / text

‹ back to catalog

STARLINK-31935

NORAD 59876 · 2024-098U

PAYLOAD ACTIVE UNKNOWN

§ Identity

Operator
Country
US
Launch date
2024-05-24
Launch site
AFETR
Launch vehicle
Mass (kg)
RCS (m²)

Purposes: comms

External: N2YO · Heavens-Above · Gunter

§ Orbital elements

Epoch: 2026-05-25T04:37:12.139104Z

Period
94.27 min
Inclination
43.0004°
Eccentricity
0.0001316
Mean motion
15.27583841 rev/d
Perigee alt
482.1 km
Apogee alt
483.9 km
Semi-major
6,861.2 km
B*
4.0426e-5
RAAN
206.1714°
Arg perigee
278.9582°
Mean anomaly
81.1120°
Rev number
11,354

§ Raw data

STARLINK-319351 59876U 24098U   26145.19250161  .00000851  00000+0  40426-4 0  99942 59876  43.0004 206.1714 0001316 278.9582  81.1120 15.27583841113542

JSON: /api/v1/satellites/59876 · /tle

For live sub-satellite position, see the globe view (requires WebGL).

§ Visibility from observer

Set your observer location to see the next 7 days of passes ≥ 10°. The values pass through the URL so the page stays shareable.

No JS? Fill the form by hand. The geolocation button needs JavaScript.